Tracking 19242 objects as of 15-Aug-2018
HD Live streaming from Space Station
objects crossing your sky now

SL-12 R/B(2)

Track SL-12 R/B(2) now!


NORAD ID: 25743
Int'l Code: 1999-027D
Perigee: 7,036.6 km
Apogee: 35,715.3 km
Inclination: 16.3 °
Period: 766.6 minutes
Semi major axis: 27746 km
RCS: 23.7189 m2 (large)
Launch date: May 20, 1999
Source: Commonwealth of Independent States (former USSR) (CIS)
Launch site: TYURATAM MISSILE AND SPACE COMPLEX (TTMTR)

Note: This is a ROCKET BODY
aabbcc
Your satellite tracking list
Your tracking list is empty




NASA's NSSDC Master Catalog

Two Line Element Set (TLE):
1 25743U 99027D   18226.79318616 -.00000125  00000-0  00000+0 0  9996
2 25743  16.2941 182.1287 5167906 332.8106 261.9150  1.87836549132070
Source of the keplerian elements: AFSPC